map of STM home
STM - Airport
Location
City:  Santarém, Pará, Brazil
Name:Santarém - Maestro Wilson Fonseca Airport
ICAO:SBSN
IATA:STM

Details
Type:Airport (Aerodrome, Airfield)
Use:Public/Civil, International (customs port of entry)
Latitude:2°25'21"S (-2.422430)
Longitude:54°47'34"W (-54.792788)
Datum:WGS 1984
Elevation:198 ft (60 m)
Variation:18.28°W (WMM2015 magnetic declination)
-0.08° annual change
Runways:1
Longest:7874 × 148 ft (2400 × 45 m), paved

Time
Time Zone:UTC-3
Local Time:

Weather
METAR:SBSN 251500Z 35003KT 9999 FEW017 BKN100 29/23 Q1013
TAF:SBSN 251000Z 2512/2612 08008KT 8000 SCT015 TX31/2519Z TN24/2608Z
BECMG 2513/2515 09010KT 9999 BKN020
BECMG 2516/2518 SCT020 FEW025TCU
BECMG 2521/2523 12008KT FEW020
RMK PEN

Related Locations
Nearby:
Farthest:MAL: 12381 mi / 19926 km
Mangole [Falabisahaya Airport], Mangole Island, MA, ID

Find:

   beyond  
but within

Other Information
Maps:
NOTAMs:
Links:
Sources:

  
flag of Brazil
flag of Pará
  

Sectional Chart

Flight Planning
at skyvector.com

Satellite Image

Google Maps Satellite view

 

Copyright © 2004-2017 Karl L. Swartz. All rights reserved.
The Great Circle Mapper name and logo are trademarks of the Great Circle Mapper.
All other trademarks mentioned herein belong to their respective owners.
Please see credits for attibutions and further copyright information.

  Follow gcmap on Facebook Follow gcmap on Twitter Follow gcmap on Google+ GCmap on LinkedIn

hCard Microformat

Geo Microformat